Flag Weather past 2 weeks in Hamilton, Bermuda

Now
73 °F

Passing clouds.


Feels Like: 73 °F
Forecast: 72 / 77 °F
Wind: 13 mph from Southwest

Location: Bermuda

Current Time: Nov 27, 2014 at 4:31:05 AM

Latest Report: Nov 27, 2014 at 3:55 AM


Visibility: N/A

Pressure: 30.09 "Hg

Humidity: 83%

Dew point: 68 °F

Location of HamiltonLocation

Historic Weather in Hamilton — Graph

°F

Hamilton temperature yesterday

Maximum temperature yesterday: 77 °F (at 9:55 AM)
Minimum temperature yesterday: 73 °F (at 12:55 AM)
Average temperature yesterday: 75 °F

Past Weeks' High & Low Weather Summary

 TemperatureHumidityPressure
High79 °F (Nov 13, 10:55 AM)100% (Nov 12, 6:55 AM)30.42 "Hg (Nov 12, 6:55 AM)
Low61 °F (Nov 20, 1:55 AM)49% (Nov 22, 12:55 PM)29.80 "Hg (Nov 12, 8:55 PM)
Average71 °F77%30.15 "Hg
* Reported Nov 12 2:55 AM — Nov 27 2:55 AM, Hamilton, Weather by CustomWeather, © 2014

Note: Actual official high and low records may vary slightly from our data, if they occured in-between our weather recording intervals... More about our weather records

Advertising

Hamilton weather history for previous 24 hours

 ConditionsComfort  
Time TempWeatherWind HumidityBarometerVisibility
2:55 AM
Nov 27
73 °FScattered showers. Partly cloudy.15 mph89%30.12 "HgN/A
1:55 AM73 °FPassing clouds.14 mph89%30.12 "HgN/A
12:55 AM75 °FPassing clouds.17 mph78%30.15 "HgN/A
11:55 PM
Nov 26
73 °FPassing clouds.18 mph83%30.15 "HgN/A
10:55 PM75 °FPassing clouds.17 mph78%30.18 "HgN/A
9:55 PM73 °FScattered showers. Passing clouds.17 mph83%30.18 "HgN/A
8:55 PM75 °FPassing clouds.17 mph78%30.18 "HgN/A
7:55 PM75 °FPassing clouds.17 mph78%30.18 "HgN/A
6:55 PM75 °FPassing clouds.21 mph78%30.18 "HgN/A
5:55 PM73 °FPassing clouds.17 mph83%30.18 "HgN/A
4:55 PM75 °FScattered showers. Passing clouds.20 mph78%30.18 "HgN/A
3:55 PM75 °FPassing clouds.18 mph78%30.18 "HgN/A
2:55 PM77 °FPassing clouds.20 mph74%30.21 "HgN/A
1:55 PM77 °FPassing clouds.21 mph74%30.21 "HgN/A
12:55 PM77 °FPassing clouds.18 mph79%30.24 "HgN/A
11:55 AM77 °FScattered clouds.16 mph79%30.27 "HgN/A
10:55 AM77 °FScattered showers. Scattered clouds.17 mph74%30.27 "HgN/A
9:55 AM77 °FPassing clouds.16 mph69%30.30 "HgN/A
8:55 AM75 °FScattered clouds.16 mph69%30.30 "HgN/A
7:55 AM73 °FScattered clouds.15 mph74%30.27 "HgN/A
6:55 AM73 °FPassing clouds.15 mph74%30.27 "HgN/A
5:55 AM73 °FPassing clouds.15 mph78%30.27 "HgN/A
4:55 AM73 °FPassing clouds.12 mph78%30.27 "HgN/A
Weather by CustomWeather, © 2014

See weather overviewHow to use our weather pages